Year,Month,Day,Hour,Minute,Value (Times are PST for temperature in C)
2016,02,22,00,00,5.50
2016,02,22,00,01,5.60
2016,02,22,00,02,5.60
2016,02,22,00,03,5.60
2016,02,22,00,04,5.60
2016,02,22,00,05,5.60
2016,02,22,00,06,5.50
2016,02,22,00,07,5.50
2016,02,22,00,08,5.50
2016,02,22,00,09,5.60
2016,02,22,00,10,5.60
2016,02,22,00,11,5.60
2016,02,22,00,12,5.60
2016,02,22,00,13,5.60
2016,02,22,00,14,5.60
2016,02,22,00,15,5.60
2016,02,22,00,16,5.60
2016,02,22,00,17,5.60
2016,02,22,00,18,5.60
2016,02,22,00,19,5.60
2016,02,22,00,20,5.60
2016,02,22,00,21,5.60
2016,02,22,00,22,5.70
2016,02,22,00,23,5.70
2016,02,22,00,24,5.70
2016,02,22,00,25,5.70
2016,02,22,00,26,5.70
2016,02,22,00,27,5.70
2016,02,22,00,28,5.70
2016,02,22,00,29,5.70
2016,02,22,00,30,5.70
2016,02,22,00,31,5.70
2016,02,22,00,32,5.70
2016,02,22,00,33,5.70
2016,02,22,00,34,5.70
2016,02,22,00,35,5.70
2016,02,22,00,36,5.70
2016,02,22,00,37,5.70
2016,02,22,00,38,5.70
2016,02,22,00,39,5.70
2016,02,22,00,40,5.70
2016,02,22,00,41,5.80
2016,02,22,00,42,5.80
2016,02,22,00,43,5.90
2016,02,22,00,44,5.90
2016,02,22,00,45,6.00
2016,02,22,00,46,6.00
2016,02,22,00,47,6.10
2016,02,22,00,48,6.10
2016,02,22,00,49,6.20
2016,02,22,00,50,6.20
2016,02,22,00,51,6.30
2016,02,22,00,52,6.30
2016,02,22,00,53,6.30
2016,02,22,00,54,6.40
2016,02,22,00,55,6.40
2016,02,22,00,56,6.40
2016,02,22,00,57,6.50
2016,02,22,00,58,6.50
2016,02,22,00,59,6.60
2016,02,22,01,00,6.60
2016,02,22,01,01,6.60
2016,02,22,01,02,6.70
2016,02,22,01,03,6.70
2016,02,22,01,04,6.70
2016,02,22,01,05,6.70
2016,02,22,01,06,6.70
2016,02,22,01,07,6.70
2016,02,22,01,08,6.70
2016,02,22,01,09,6.80
2016,02,22,01,10,6.80
2016,02,22,01,11,6.80
2016,02,22,01,12,6.80
2016,02,22,01,13,6.80
2016,02,22,01,14,6.80
2016,02,22,01,15,6.80
2016,02,22,01,16,6.80
2016,02,22,01,17,6.80
2016,02,22,01,18,6.80
2016,02,22,01,19,6.80
2016,02,22,01,20,6.80
2016,02,22,01,21,6.80
2016,02,22,01,22,6.80
2016,02,22,01,23,6.80
2016,02,22,01,24,6.70
2016,02,22,01,25,6.70
2016,02,22,01,26,6.70
2016,02,22,01,27,6.70
2016,02,22,01,28,6.70
2016,02,22,01,29,6.70
2016,02,22,01,30,6.60
2016,02,22,01,31,6.60
2016,02,22,01,32,6.60
2016,02,22,01,33,6.60
2016,02,22,01,34,6.60
2016,02,22,01,35,6.60
2016,02,22,01,36,6.60
2016,02,22,01,37,6.50
2016,02,22,01,38,6.50
2016,02,22,01,39,6.50
2016,02,22,01,40,6.50
2016,02,22,01,41,6.50
2016,02,22,01,42,6.60
2016,02,22,01,43,6.60
2016,02,22,01,44,6.60
2016,02,22,01,45,6.60
2016,02,22,01,46,6.60
2016,02,22,01,47,6.60
2016,02,22,01,48,6.60
2016,02,22,01,49,6.60
2016,02,22,01,50,6.60
2016,02,22,01,51,6.60
2016,02,22,01,52,6.60
2016,02,22,01,53,6.60
2016,02,22,01,54,6.60
2016,02,22,01,55,6.60
2016,02,22,01,56,6.60
2016,02,22,01,57,6.60
2016,02,22,01,58,6.50
2016,02,22,01,59,6.50
2016,02,22,02,00,6.50
2016,02,22,02,01,6.50
2016,02,22,02,02,6.40
2016,02,22,02,03,6.40
2016,02,22,02,04,6.40
2016,02,22,02,05,6.30
2016,02,22,02,06,6.30
2016,02,22,02,07,6.30
2016,02,22,02,08,6.30
2016,02,22,02,09,6.30
2016,02,22,02,10,6.20
2016,02,22,02,11,6.20
2016,02,22,02,12,6.20
2016,02,22,02,13,6.20
2016,02,22,02,14,6.20
2016,02,22,02,15,6.10
2016,02,22,02,16,6.10
2016,02,22,02,17,6.00
2016,02,22,02,18,6.00
2016,02,22,02,19,5.90
2016,02,22,02,20,5.90
2016,02,22,02,21,5.90
2016,02,22,02,22,5.80
2016,02,22,02,23,5.80
2016,02,22,02,24,5.80
2016,02,22,02,25,5.80
2016,02,22,02,26,5.80
2016,02,22,02,27,5.70
2016,02,22,02,28,5.70
2016,02,22,02,29,5.70
2016,02,22,02,30,5.70
2016,02,22,02,31,5.60
2016,02,22,02,32,5.60
2016,02,22,02,33,5.60
2016,02,22,02,34,5.60
2016,02,22,02,35,5.50
2016,02,22,02,36,5.50
2016,02,22,02,37,5.50
2016,02,22,02,38,5.40
2016,02,22,02,39,5.40
2016,02,22,02,40,5.40
2016,02,22,02,41,5.30
2016,02,22,02,42,5.30
2016,02,22,02,43,5.30
2016,02,22,02,44,5.20
2016,02,22,02,45,5.20
2016,02,22,02,46,5.20
2016,02,22,02,47,5.20
2016,02,22,02,48,5.20
2016,02,22,02,49,5.20
2016,02,22,02,50,5.20
2016,02,22,02,51,5.20
2016,02,22,02,52,5.20
2016,02,22,02,53,5.20
2016,02,22,02,54,5.20
2016,02,22,02,55,5.20
2016,02,22,02,56,5.20
2016,02,22,03,14,5.50
2016,02,22,03,15,5.50
2016,02,22,03,16,5.50
2016,02,22,03,17,5.50
2016,02,22,03,18,5.50
2016,02,22,03,19,5.60
2016,02,22,03,20,5.60
2016,02,22,03,21,5.60
2016,02,22,03,22,5.60
2016,02,22,03,23,5.50
2016,02,22,03,24,5.50
2016,02,22,03,25,5.50
2016,02,22,03,26,5.50
2016,02,22,03,27,5.50
2016,02,22,03,28,5.50
2016,02,22,03,29,5.50
2016,02,22,03,30,5.50
2016,02,22,03,31,5.50
2016,02,22,03,32,5.50
2016,02,22,03,33,5.50
2016,02,22,03,34,5.50
2016,02,22,03,35,5.50
2016,02,22,03,36,5.50
2016,02,22,03,37,5.50
2016,02,22,03,38,5.50
2016,02,22,03,39,5.50
2016,02,22,03,40,5.50
2016,02,22,03,41,5.50
2016,02,22,03,42,5.50
2016,02,22,03,43,5.50
2016,02,22,03,44,5.50
2016,02,22,03,45,5.50
2016,02,22,03,46,5.50
2016,02,22,03,47,5.50
2016,02,22,03,48,5.40
2016,02,22,03,49,5.40
2016,02,22,03,50,5.40
2016,02,22,03,51,5.40
2016,02,22,03,52,5.40
2016,02,22,03,53,5.40
2016,02,22,03,54,5.40
2016,02,22,03,55,5.40
2016,02,22,03,56,5.40
2016,02,22,03,57,5.30
2016,02,22,03,58,5.30
2016,02,22,03,59,5.30
2016,02,22,04,00,5.30
2016,02,22,04,01,5.30
2016,02,22,04,02,5.30
2016,02,22,04,03,5.30
2016,02,22,04,04,5.30
2016,02,22,04,05,5.20
2016,02,22,04,06,5.20
2016,02,22,04,07,5.20
2016,02,22,04,08,5.20
2016,02,22,04,09,5.20
2016,02,22,04,10,5.20
2016,02,22,04,11,5.20
2016,02,22,04,12,5.20
2016,02,22,04,13,5.20
2016,02,22,04,14,5.20
2016,02,22,04,15,5.20
2016,02,22,04,16,5.20
2016,02,22,04,17,5.20
2016,02,22,04,18,5.30
2016,02,22,04,19,5.30
2016,02,22,04,20,5.30
2016,02,22,04,21,5.30
2016,02,22,04,22,5.30
2016,02,22,04,23,5.30
2016,02,22,04,24,5.30
2016,02,22,04,25,5.30
2016,02,22,04,26,5.30
2016,02,22,04,27,5.40
2016,02,22,04,28,5.40
2016,02,22,04,29,5.40
2016,02,22,04,30,5.40
2016,02,22,04,31,5.40
2016,02,22,04,32,5.50
2016,02,22,04,33,5.50
2016,02,22,04,34,5.50
2016,02,22,04,35,5.50
2016,02,22,04,36,5.50
2016,02,22,04,37,5.60
2016,02,22,04,38,5.60
2016,02,22,04,39,5.60
2016,02,22,04,40,5.60
2016,02,22,04,41,5.60
2016,02,22,04,42,5.60
2016,02,22,04,43,5.60
2016,02,22,04,44,5.60
2016,02,22,04,45,5.70
2016,02,22,04,46,5.70
2016,02,22,04,47,5.70
2016,02,22,04,48,5.70
2016,02,22,04,49,5.70
2016,02,22,04,50,5.70
2016,02,22,04,51,5.70
2016,02,22,04,52,5.70
2016,02,22,04,53,5.70
2016,02,22,04,54,5.70
2016,02,22,04,55,5.70
2016,02,22,04,56,5.70
2016,02,22,04,57,5.70
2016,02,22,04,58,5.70
2016,02,22,04,59,5.70
2016,02,22,05,00,5.70
2016,02,22,05,01,5.70
2016,02,22,05,02,5.70
2016,02,22,05,03,5.70
2016,02,22,05,04,5.60
2016,02,22,05,05,5.60
2016,02,22,05,06,5.60
2016,02,22,05,07,5.60
2016,02,22,05,08,5.60
2016,02,22,05,09,5.60
2016,02,22,05,10,5.60
2016,02,22,05,11,5.60
2016,02,22,05,12,5.60
2016,02,22,05,13,5.60
2016,02,22,05,14,5.60
2016,02,22,05,15,5.60
2016,02,22,05,16,5.60
2016,02,22,05,17,5.60
2016,02,22,05,18,5.60
2016,02,22,05,19,5.60
2016,02,22,05,20,5.60
2016,02,22,05,21,5.60
2016,02,22,05,22,5.60
2016,02,22,05,23,5.60
2016,02,22,05,24,5.60
2016,02,22,05,25,5.60
2016,02,22,05,26,5.60
2016,02,22,05,27,5.60
2016,02,22,05,28,5.60
2016,02,22,05,29,5.50
2016,02,22,05,30,5.50
2016,02,22,05,31,5.50
2016,02,22,05,32,5.50
2016,02,22,05,33,5.50
2016,02,22,05,34,5.50
2016,02,22,05,35,5.50
2016,02,22,05,36,5.50
2016,02,22,05,37,5.50
2016,02,22,05,38,5.50
2016,02,22,05,39,5.50
2016,02,22,05,40,5.50
2016,02,22,05,41,5.50
2016,02,22,05,42,5.50
2016,02,22,08,14,4.90
2016,02,22,08,15,4.90
2016,02,22,08,16,5.00
2016,02,22,08,17,5.00
2016,02,22,08,18,5.00
2016,02,22,08,19,5.10
2016,02,22,08,20,5.10
2016,02,22,08,21,5.20
2016,02,22,08,22,5.20
2016,02,22,08,23,5.30
2016,02,22,08,24,5.30
2016,02,22,08,25,5.30
2016,02,22,08,26,5.40
2016,02,22,08,27,5.40
2016,02,22,08,28,5.40
2016,02,22,08,29,5.40
2016,02,22,08,30,5.50
2016,02,22,08,31,5.60
2016,02,22,08,32,5.60
2016,02,22,08,33,5.60
2016,02,22,08,34,5.70
2016,02,22,08,35,5.70
2016,02,22,08,36,5.70
2016,02,22,08,37,5.70
2016,02,22,08,38,5.80
2016,02,22,08,39,5.80
2016,02,22,08,40,5.80
2016,02,22,08,41,5.80
2016,02,22,08,42,5.90
2016,02,22,08,43,5.90
2016,02,22,08,44,5.90
2016,02,22,08,45,5.90
2016,02,22,08,46,5.90
2016,02,22,08,47,6.00
2016,02,22,08,48,6.00
2016,02,22,08,49,6.10
2016,02,22,08,50,6.10
2016,02,22,08,51,6.10
2016,02,22,08,52,6.10
2016,02,22,08,53,6.10
2016,02,22,08,54,6.20
2016,02,22,08,55,6.20
2016,02,22,08,56,6.20
2016,02,22,08,57,6.20
2016,02,22,08,58,6.20
2016,02,22,08,59,6.20
2016,02,22,09,00,6.10
2016,02,22,09,01,6.10
2016,02,22,09,02,6.00
2016,02,22,09,03,6.00
2016,02,22,09,04,5.90
2016,02,22,09,05,5.90
2016,02,22,09,06,5.90
2016,02,22,09,07,5.80
2016,02,22,09,08,5.80
2016,02,22,09,09,5.80
2016,02,22,09,10,5.80
2016,02,22,09,11,5.80
2016,02,22,09,12,5.80
2016,02,22,09,13,5.80
2016,02,22,09,14,5.70
2016,02,22,09,15,5.70
2016,02,22,09,16,5.70
2016,02,22,09,17,5.70
2016,02,22,09,18,5.70
2016,02,22,09,19,5.70
2016,02,22,09,20,5.70
2016,02,22,09,21,5.70
2016,02,22,09,22,5.70
2016,02,22,09,23,5.70
2016,02,22,09,24,5.70
2016,02,22,09,25,5.70
2016,02,22,09,26,5.60
2016,02,22,09,27,5.60
2016,02,22,09,28,5.60
2016,02,22,09,29,5.60
2016,02,22,09,30,5.60
2016,02,22,09,31,5.60
2016,02,22,09,32,5.60
2016,02,22,09,33,5.60
2016,02,22,09,34,5.60
2016,02,22,09,35,5.60
2016,02,22,09,36,5.60
2016,02,22,09,37,5.60
2016,02,22,09,38,5.60
2016,02,22,09,39,5.60
2016,02,22,09,40,5.60
2016,02,22,09,41,5.60
2016,02,22,09,42,5.60
2016,02,22,09,43,5.60
2016,02,22,09,44,5.60
2016,02,22,09,45,5.60
2016,02,22,09,46,5.70
2016,02,22,09,47,5.70
2016,02,22,09,48,5.70
2016,02,22,09,49,5.70
2016,02,22,09,50,5.70
2016,02,22,09,51,5.70
2016,02,22,09,52,5.70
2016,02,22,09,53,5.70
2016,02,22,09,54,5.70
2016,02,22,09,55,5.70
2016,02,22,09,56,5.70
2016,02,22,09,57,5.70
2016,02,22,09,58,5.70
2016,02,22,09,59,5.80
2016,02,22,10,00,5.80
2016,02,22,10,01,5.80
2016,02,22,10,02,5.80
2016,02,22,10,03,5.80
2016,02,22,10,04,5.80
2016,02,22,10,05,5.80
2016,02,22,10,06,5.90
2016,02,22,10,07,5.90
2016,02,22,10,08,6.00
2016,02,22,10,09,6.00
2016,02,22,10,10,6.00
2016,02,22,10,11,6.10
2016,02,22,10,12,6.10
2016,02,22,10,13,6.20
2016,02,22,10,14,6.20
2016,02,22,10,15,6.20
2016,02,22,10,16,6.20
2016,02,22,10,17,6.30
2016,02,22,10,18,6.30
2016,02,22,10,19,6.40
2016,02,22,10,20,6.40
2016,02,22,10,21,6.40
2016,02,22,10,22,6.50
2016,02,22,10,23,6.50
2016,02,22,10,24,6.60
2016,02,22,10,25,6.60
2016,02,22,10,26,6.70
2016,02,22,10,27,6.70
2016,02,22,10,28,6.80
2016,02,22,10,29,6.90
2016,02,22,10,30,6.90
2016,02,22,10,31,6.90
2016,02,22,10,32,7.00
2016,02,22,10,33,7.10
2016,02,22,10,34,7.10
2016,02,22,10,35,7.20
2016,02,22,10,36,7.20
2016,02,22,10,37,7.30
2016,02,22,10,38,7.30
2016,02,22,10,39,7.30
2016,02,22,10,40,7.30
2016,02,22,10,41,7.40
2016,02,22,10,42,7.40
2016,02,22,10,43,7.40
2016,02,22,10,44,7.50
2016,02,22,10,45,7.50
2016,02,22,10,46,7.50
2016,02,22,10,47,7.60
2016,02,22,10,48,7.70
2016,02,22,10,49,7.70
2016,02,22,10,50,7.80
2016,02,22,10,51,7.80
2016,02,22,10,52,7.80
2016,02,22,10,53,7.90
2016,02,22,10,54,7.90
2016,02,22,10,55,7.90
2016,02,22,10,56,7.90
2016,02,22,10,57,8.00
2016,02,22,10,58,8.00
2016,02,22,10,59,8.00
2016,02,22,11,00,8.10
2016,02,22,11,01,8.10
2016,02,22,11,02,8.10
2016,02,22,11,03,8.10
2016,02,22,11,04,8.10
2016,02,22,11,05,8.10
2016,02,22,11,06,8.10
2016,02,22,11,07,8.10
2016,02,22,11,08,8.10
2016,02,22,11,09,8.10
2016,02,22,11,10,8.10
2016,02,22,11,11,8.00
2016,02,22,11,12,8.00
2016,02,22,11,13,7.90
2016,02,22,11,14,7.90
2016,02,22,11,15,7.90
2016,02,22,11,16,7.90
2016,02,22,11,17,7.90
2016,02,22,11,18,7.90
2016,02,22,11,19,7.90
2016,02,22,11,20,7.90
2016,02,22,11,21,7.90
2016,02,22,11,22,8.00
2016,02,22,11,23,8.00
2016,02,22,11,24,8.00
2016,02,22,11,25,8.00
2016,02,22,11,26,8.00
2016,02,22,11,27,8.10
2016,02,22,11,28,8.10
2016,02,22,11,29,8.10
2016,02,22,11,30,8.20
2016,02,22,11,31,8.20
2016,02,22,11,32,8.20
2016,02,22,11,33,8.30
2016,02,22,11,34,8.30
2016,02,22,11,35,8.30
2016,02,22,11,36,8.40
2016,02,22,11,37,8.40
2016,02,22,11,38,8.50
2016,02,22,11,39,8.50
2016,02,22,11,40,8.60
2016,02,22,11,41,8.60
2016,02,22,11,42,8.60
2016,02,22,11,43,8.60
2016,02,22,11,44,8.60
2016,02,22,11,45,8.60
2016,02,22,11,46,8.60
2016,02,22,11,47,8.70
2016,02,22,11,48,8.70
2016,02,22,11,49,8.70
2016,02,22,11,50,8.80
2016,02,22,11,51,8.90
2016,02,22,11,52,9.00
2016,02,22,11,53,9.00
2016,02,22,11,54,9.10
2016,02,22,11,55,9.10
2016,02,22,11,56,9.10
2016,02,22,11,57,9.20
2016,02,22,11,58,9.20
2016,02,22,11,59,9.20
2016,02,22,12,00,9.30
2016,02,22,12,01,9.30
2016,02,22,12,02,9.30
2016,02,22,12,03,9.30
2016,02,22,12,04,9.30
2016,02,22,12,05,9.30
2016,02,22,12,06,9.30
2016,02,22,12,07,9.30
2016,02,22,12,08,9.30
2016,02,22,12,09,9.20
2016,02,22,12,10,9.20
2016,02,22,12,11,9.20
2016,02,22,12,12,9.20
2016,02,22,12,13,9.20
2016,02,22,12,14,9.20
2016,02,22,12,15,9.20
2016,02,22,12,16,9.20
2016,02,22,12,17,9.20
2016,02,22,12,18,9.10
2016,02,22,12,19,9.10
2016,02,22,12,20,9.10
2016,02,22,12,21,9.10
2016,02,22,12,22,9.10
2016,02,22,12,23,9.10
2016,02,22,12,24,9.10
2016,02,22,12,25,9.10
2016,02,22,12,26,9.10
2016,02,22,12,27,9.10
2016,02,22,12,28,9.10
2016,02,22,12,29,9.10
2016,02,22,12,30,9.10
2016,02,22,12,31,9.10
2016,02,22,12,32,9.10
2016,02,22,12,33,9.10
2016,02,22,12,34,9.10
2016,02,22,12,35,9.10
2016,02,22,12,36,9.00
2016,02,22,12,37,9.00
2016,02,22,12,38,9.00
2016,02,22,12,39,9.00
2016,02,22,12,40,9.10
2016,02,22,12,41,9.10
2016,02,22,12,42,9.10
2016,02,22,12,43,9.10
2016,02,22,12,44,9.10
2016,02,22,12,45,9.10
2016,02,22,12,46,9.10
2016,02,22,12,47,9.10
2016,02,22,12,48,9.10
2016,02,22,12,49,9.10
2016,02,22,12,50,9.10
2016,02,22,12,51,9.20
2016,02,22,12,52,9.20
2016,02,22,12,53,9.20
2016,02,22,12,54,9.20
2016,02,22,12,55,9.20
2016,02,22,12,56,9.20
2016,02,22,12,57,9.20
2016,02,22,12,58,9.20
2016,02,22,12,59,9.20
2016,02,22,13,00,9.20
2016,02,22,13,01,9.20
2016,02,22,13,02,9.20
2016,02,22,13,03,9.20
2016,02,22,13,04,9.20
2016,02,22,13,05,9.20
2016,02,22,13,06,9.20
2016,02,22,13,07,9.20
2016,02,22,13,08,9.20
2016,02,22,13,09,9.20
2016,02,22,13,10,9.20
2016,02,22,13,11,9.20
2016,02,22,13,12,9.20
2016,02,22,13,13,9.20
2016,02,22,13,14,9.20
2016,02,22,13,15,9.10
2016,02,22,13,16,9.10
2016,02,22,13,17,9.10
2016,02,22,13,18,9.10
2016,02,22,13,19,9.10
2016,02,22,13,20,9.10
2016,02,22,13,21,9.10
2016,02,22,13,22,9.10
2016,02,22,13,23,9.10
2016,02,22,13,24,9.20
2016,02,22,13,25,9.20
2016,02,22,13,26,9.20
2016,02,22,13,27,9.20
2016,02,22,13,28,9.20
2016,02,22,13,29,9.20
2016,02,22,13,30,9.20
2016,02,22,13,31,9.20
2016,02,22,13,32,9.20
2016,02,22,13,33,9.20
2016,02,22,13,34,9.20
2016,02,22,13,35,9.20
2016,02,22,13,36,9.10
2016,02,22,13,37,9.10
2016,02,22,13,38,9.10
2016,02,22,13,39,9.10
2016,02,22,13,40,9.10
2016,02,22,13,41,9.10
2016,02,22,13,42,9.00
2016,02,22,13,43,9.00
2016,02,22,13,44,8.90
2016,02,22,13,45,8.90
2016,02,22,13,46,8.90
2016,02,22,13,47,8.90
2016,02,22,13,48,8.90
2016,02,22,13,49,8.90
2016,02,22,13,50,9.00
2016,02,22,13,51,9.00
2016,02,22,13,52,9.00
2016,02,22,13,53,9.00
2016,02,22,13,54,9.00
2016,02,22,13,55,9.00
2016,02,22,13,56,9.00
2016,02,22,13,57,8.90
2016,02,22,13,58,8.90
2016,02,22,13,59,8.90
2016,02,22,14,00,8.90
2016,02,22,14,01,8.90
2016,02,22,14,02,8.90
2016,02,22,14,03,8.90
2016,02,22,14,04,9.00
2016,02,22,14,05,9.00
2016,02,22,14,06,9.10
2016,02,22,14,07,9.10
2016,02,22,14,08,9.10
2016,02,22,14,09,9.10
2016,02,22,14,10,9.10
2016,02,22,14,11,9.10
2016,02,22,14,12,9.10
2016,02,22,14,13,9.10
2016,02,22,14,14,9.20
2016,02,22,14,15,9.20
2016,02,22,14,16,9.20
2016,02,22,14,17,9.20
2016,02,22,14,18,9.20
2016,02,22,14,19,9.20
2016,02,22,14,20,9.20
2016,02,22,14,21,9.20
2016,02,22,14,22,9.20
2016,02,22,14,23,9.20
2016,02,22,14,24,9.20
2016,02,22,14,25,9.20
2016,02,22,14,26,9.20
2016,02,22,14,27,9.20
2016,02,22,14,28,9.20
2016,02,22,14,29,9.20
2016,02,22,14,30,9.20
2016,02,22,14,31,9.30
2016,02,22,14,32,9.30
2016,02,22,14,33,9.30
2016,02,22,14,34,9.40
2016,02,22,14,35,9.40
2016,02,22,14,36,9.40
2016,02,22,14,37,9.40
2016,02,22,14,38,9.40
2016,02,22,14,39,9.50
2016,02,22,14,40,9.50
2016,02,22,14,41,9.60
2016,02,22,14,42,9.60
2016,02,22,14,43,9.70
2016,02,22,14,44,9.70
2016,02,22,14,45,9.80
2016,02,22,14,46,9.80
2016,02,22,14,47,9.80
2016,02,22,14,48,9.90
2016,02,22,14,49,9.90
2016,02,22,14,50,9.90
2016,02,22,14,51,9.90
2016,02,22,14,52,9.90
2016,02,22,14,53,10.00
2016,02,22,14,54,10.00
2016,02,22,14,55,10.00
2016,02,22,14,56,10.00
2016,02,22,14,57,10.00
2016,02,22,14,58,10.00
2016,02,22,14,59,10.00
2016,02,22,15,00,10.00
2016,02,22,15,01,10.00
2016,02,22,15,02,10.00
2016,02,22,15,03,10.00
2016,02,22,15,04,10.00
2016,02,22,15,05,10.00
2016,02,22,15,06,10.00
2016,02,22,15,07,10.00
2016,02,22,15,08,10.00
2016,02,22,15,09,9.90
2016,02,22,15,10,9.90
2016,02,22,15,11,9.90
2016,02,22,15,12,9.90
2016,02,22,15,13,9.90
2016,02,22,15,14,9.90
2016,02,22,15,15,9.90
2016,02,22,15,16,9.90
2016,02,22,15,17,9.90
2016,02,22,15,18,9.90
2016,02,22,15,19,9.90
2016,02,22,15,20,9.90
2016,02,22,15,21,9.80
2016,02,22,15,22,9.80
2016,02,22,15,23,9.80
2016,02,22,15,24,9.80
2016,02,22,15,25,9.80
2016,02,22,15,26,9.80
2016,02,22,15,27,9.80
2016,02,22,15,28,9.80
2016,02,22,15,29,9.80
2016,02,22,15,30,9.80
2016,02,22,15,31,9.90
2016,02,22,15,32,9.90
2016,02,22,15,33,9.90
2016,02,22,15,34,9.90
2016,02,22,15,35,9.90
2016,02,22,15,36,9.90
2016,02,22,15,37,9.90
2016,02,22,15,38,9.90
2016,02,22,15,39,9.90
2016,02,22,15,40,9.90
2016,02,22,15,41,9.90
2016,02,22,15,42,9.80
2016,02,22,15,43,9.80
2016,02,22,15,44,9.80
2016,02,22,15,45,9.80
2016,02,22,15,46,9.80
2016,02,22,15,47,9.80
2016,02,22,15,48,9.80
2016,02,22,15,49,9.80
2016,02,22,15,50,9.80
2016,02,22,15,51,9.80
2016,02,22,15,52,9.80
2016,02,22,15,53,9.80
2016,02,22,15,54,9.80
2016,02,22,15,55,9.80
2016,02,22,15,56,9.80
2016,02,22,15,57,9.80
2016,02,22,15,58,9.80
2016,02,22,15,59,9.80
2016,02,22,16,00,9.90
2016,02,22,16,01,9.90
2016,02,22,16,02,9.90
2016,02,22,16,03,9.90
2016,02,22,16,04,9.90
2016,02,22,16,05,9.80
2016,02,22,16,06,9.80
2016,02,22,16,07,9.80
2016,02,22,16,08,9.80
2016,02,22,16,09,9.70
2016,02,22,16,10,9.70
2016,02,22,16,11,9.70
2016,02,22,16,12,9.60
2016,02,22,16,13,9.60
2016,02,22,16,14,9.60
2016,02,22,16,15,9.60
2016,02,22,16,16,9.60
2016,02,22,16,17,9.60
2016,02,22,16,18,9.60
2016,02,22,16,19,9.60
2016,02,22,16,20,9.60
2016,02,22,16,21,9.60
2016,02,22,16,22,9.60
2016,02,22,16,23,9.60
2016,02,22,16,24,9.60
2016,02,22,16,25,9.60
2016,02,22,16,26,9.60
2016,02,22,16,27,9.60
2016,02,22,16,28,9.60
2016,02,22,16,29,9.60
2016,02,22,16,30,9.60
2016,02,22,16,31,9.60
2016,02,22,16,32,9.60
2016,02,22,16,33,9.60
2016,02,22,16,34,9.60
2016,02,22,16,35,9.60
2016,02,22,16,36,9.60
2016,02,22,16,37,9.60
2016,02,22,16,38,9.60
2016,02,22,16,39,9.60
2016,02,22,16,40,9.60
2016,02,22,16,41,9.60
2016,02,22,16,42,9.60
2016,02,22,16,43,9.60
2016,02,22,16,44,9.60
2016,02,22,16,45,9.60
2016,02,22,16,46,9.70
2016,02,22,16,47,9.70
2016,02,22,16,48,9.70
2016,02,22,16,49,9.70
2016,02,22,16,50,9.70
2016,02,22,16,51,9.70
2016,02,22,16,52,9.70
2016,02,22,16,53,9.70
2016,02,22,16,54,9.70
2016,02,22,16,55,9.70
2016,02,22,16,56,9.70
2016,02,22,16,57,9.70
2016,02,22,16,58,9.60
2016,02,22,16,59,9.60
2016,02,22,17,00,9.60
2016,02,22,17,01,9.60
2016,02,22,17,02,9.60
2016,02,22,17,03,9.60
2016,02,22,17,04,9.60
2016,02,22,17,05,9.50
2016,02,22,17,06,9.50
2016,02,22,17,07,9.50
2016,02,22,17,08,9.50
2016,02,22,17,09,9.40
2016,02,22,17,10,9.40
2016,02,22,17,11,9.40
2016,02,22,17,12,9.40
2016,02,22,17,13,9.40
2016,02,22,17,14,9.30
2016,02,22,17,15,9.30
2016,02,22,17,16,9.20
2016,02,22,17,17,9.20
2016,02,22,17,18,9.10
2016,02,22,17,19,9.10
2016,02,22,17,20,9.00
2016,02,22,17,21,9.00
2016,02,22,17,22,9.00
2016,02,22,17,23,9.00
2016,02,22,17,24,9.00
2016,02,22,17,25,9.00
2016,02,22,17,26,8.90
2016,02,22,17,27,8.90
2016,02,22,17,28,8.80
2016,02,22,17,29,8.80
2016,02,22,17,30,8.80
2016,02,22,17,31,8.80
2016,02,22,17,32,8.80
2016,02,22,17,33,8.70
2016,02,22,17,34,8.70
2016,02,22,17,35,8.70
2016,02,22,17,36,8.70
2016,02,22,17,37,8.70
2016,02,22,17,38,8.70
2016,02,22,17,39,8.60
2016,02,22,17,40,8.60
2016,02,22,17,41,8.60
2016,02,22,17,42,8.60
2016,02,22,17,43,8.50
2016,02,22,17,44,8.50
2016,02,22,17,45,8.50
2016,02,22,17,46,8.40
2016,02,22,17,47,8.40
2016,02,22,17,48,8.40
2016,02,22,17,49,8.30
2016,02,22,17,50,8.30
2016,02,22,17,51,8.30
2016,02,22,17,52,8.30
2016,02,22,17,53,8.30
2016,02,22,17,54,8.20
2016,02,22,17,55,8.20
2016,02,22,17,56,8.20
2016,02,22,17,57,8.20
2016,02,22,17,58,8.10
2016,02,22,17,59,8.10
2016,02,22,18,00,8.10
2016,02,22,18,01,8.10
2016,02,22,18,02,8.00
2016,02,22,18,03,8.00
2016,02,22,18,04,8.00
2016,02,22,18,05,8.00
2016,02,22,18,06,7.90
2016,02,22,18,07,7.90
2016,02,22,18,08,7.90
2016,02,22,18,09,7.90
2016,02,22,18,10,7.80
2016,02,22,18,11,7.80
2016,02,22,18,12,7.80
2016,02,22,18,13,7.80
2016,02,22,18,14,7.70
2016,02,22,18,15,7.70
2016,02,22,18,16,7.70
2016,02,22,18,17,7.70
2016,02,22,18,18,7.60
2016,02,22,18,19,7.60
2016,02,22,18,20,7.60
2016,02,22,18,21,7.60
2016,02,22,18,22,7.50
2016,02,22,18,23,7.50
2016,02,22,18,24,7.50
2016,02,22,18,25,7.40
2016,02,22,18,26,7.40
2016,02,22,18,27,7.40
2016,02,22,18,28,7.30
2016,02,22,18,29,7.30
2016,02,22,18,30,7.30
2016,02,22,18,31,7.30
2016,02,22,18,32,7.20
2016,02,22,18,33,7.20
2016,02,22,18,34,7.20
2016,02,22,18,35,7.10
2016,02,22,18,36,7.10
2016,02,22,18,37,7.10
2016,02,22,18,38,7.10
2016,02,22,18,39,7.00
2016,02,22,18,40,7.00
2016,02,22,18,41,6.90
2016,02,22,18,42,6.90
2016,02,22,18,43,6.90
2016,02,22,18,44,6.80
2016,02,22,18,45,6.80
2016,02,22,18,46,6.80
2016,02,22,18,47,6.70
2016,02,22,18,48,6.70
2016,02,22,18,49,6.70
2016,02,22,18,50,6.60
2016,02,22,18,51,6.60
2016,02,22,18,52,6.60
2016,02,22,18,53,6.60
2016,02,22,18,54,6.50
2016,02,22,18,55,6.40
2016,02,22,18,56,6.40
2016,02,22,18,57,6.40
2016,02,22,18,58,6.40
2016,02,22,18,59,6.30
2016,02,22,19,00,6.30
2016,02,22,19,01,6.30
2016,02,22,19,02,6.30
2016,02,22,19,03,6.20
2016,02,22,19,04,6.20
2016,02,22,19,05,6.20
2016,02,22,19,06,6.20
2016,02,22,19,07,6.20
2016,02,22,19,08,6.10
2016,02,22,19,09,6.10
2016,02,22,19,10,6.10
2016,02,22,19,11,6.10
2016,02,22,19,12,6.10
2016,02,22,19,13,6.00
2016,02,22,19,14,6.00
2016,02,22,19,15,6.00
2016,02,22,19,16,6.00
2016,02,22,19,17,5.90
2016,02,22,19,18,5.90
2016,02,22,19,19,5.90
2016,02,22,19,20,5.90
2016,02,22,19,21,5.90
2016,02,22,19,22,5.80
2016,02,22,19,23,5.80
2016,02,22,19,24,5.80
2016,02,22,19,25,5.80
2016,02,22,19,26,5.80
2016,02,22,19,27,5.80
2016,02,22,19,28,5.70
2016,02,22,19,29,5.70
2016,02,22,19,30,5.70
2016,02,22,19,31,5.70
2016,02,22,19,32,5.60
2016,02,22,19,33,5.60
2016,02,22,19,34,5.60
2016,02,22,19,35,5.60
2016,02,22,19,36,5.60
2016,02,22,19,37,5.50
2016,02,22,19,38,5.50
2016,02,22,19,39,5.50
2016,02,22,19,40,5.40
2016,02,22,19,41,5.40
2016,02,22,19,42,5.40
2016,02,22,19,43,5.40
2016,02,22,19,44,5.30
2016,02,22,19,45,5.30
2016,02,22,19,46,5.30
2016,02,22,19,47,5.30
2016,02,22,19,48,5.30
2016,02,22,19,49,5.30
2016,02,22,19,50,5.30
2016,02,22,19,51,5.30
2016,02,22,19,52,5.30
2016,02,22,19,53,5.30
2016,02,22,19,54,5.30
2016,02,22,19,55,5.30
2016,02,22,19,56,5.30
2016,02,22,19,57,5.30
2016,02,22,19,58,5.30
2016,02,22,19,59,5.30
2016,02,22,20,00,5.30
2016,02,22,20,01,5.30
2016,02,22,20,02,5.30
2016,02,22,20,03,5.30
2016,02,22,20,04,5.30
2016,02,22,20,05,5.30
2016,02,22,20,06,5.30
2016,02,22,20,07,5.20
2016,02,22,20,08,5.20
2016,02,22,20,09,5.20
2016,02,22,20,10,5.20
2016,02,22,20,11,5.20
2016,02,22,20,12,5.20
2016,02,22,20,13,5.20
2016,02,22,20,14,5.20
2016,02,22,20,15,5.20
2016,02,22,20,16,5.20
2016,02,22,20,17,5.20
2016,02,22,20,18,5.10
2016,02,22,20,19,5.10
2016,02,22,20,20,5.10
2016,02,22,20,21,5.10
2016,02,22,20,22,5.10
2016,02,22,20,23,5.10
2016,02,22,20,24,5.10
2016,02,22,20,25,5.10
2016,02,22,20,26,5.10
2016,02,22,20,27,5.10
2016,02,22,20,28,5.10
2016,02,22,20,29,5.10
2016,02,22,20,30,5.10
2016,02,22,20,31,5.10
2016,02,22,20,32,5.10
2016,02,22,20,33,5.10
2016,02,22,20,34,5.10
2016,02,22,20,35,5.10
2016,02,22,20,36,5.10
2016,02,22,20,37,5.10
2016,02,22,20,38,5.10
2016,02,22,20,39,5.20
2016,02,22,20,40,5.20
2016,02,22,20,41,5.20
2016,02,22,20,42,5.20
2016,02,22,20,43,5.20
2016,02,22,20,44,5.20
2016,02,22,20,45,5.20
2016,02,22,20,46,5.20
2016,02,22,20,47,5.20
2016,02,22,20,48,5.20
2016,02,22,20,49,5.20
2016,02,22,20,50,5.20
2016,02,22,20,51,5.10
2016,02,22,20,52,5.10
2016,02,22,20,53,5.10
2016,02,22,20,54,5.10